Home > Weather > Norwalk > Past weeks

Flag for USA Past Weather in Norwalk, California, USA — Yesterday and Last 2 Weeks

Now
82 °F

Sunny.


Feels Like: 83 °F
Forecast: 67 / 89 °F
Wind: 5 mph from Southwest

Location: Fullerton Municipal Airport

Current Time: Jul 24, 2016 at 7:38:38 PM

Latest Report: Jul 24, 2016 at 6:53 PM


Visibility: 10 mi

Pressure: 29.86 "Hg

Humidity: 49%

Dew Point: 61 °F

Location of NorwalkLocation

Past Weather in Norwalk — Graph

°F

Norwalk Temperature Yesterday

Maximum temperature yesterday: 95 °F (at 11:53 AM)
Minimum temperature yesterday: 71 °F (at 4:53 AM)
Average temperature yesterday: 79 °F

High & Low Weather Summary for the Past Weeks

 TemperatureHumidityPressure
High103 °F (Jul 22, 2:53 PM)87% (Jul 24, 4:53 AM)30.02 "Hg (Jul 24, 4:53 AM)
Low65 °F (Jul 15, 3:53 AM)13% (Jul 22, 3:53 PM)29.78 "Hg (Jul 23, 5:53 PM)
Average77 °F59%29.91 "Hg
* Reported Jul 9 5:53 PM — Jul 24 5:53 PM, Norwalk, Weather by CustomWeather, © 2016

Note: Actual official high and low records may vary slightly from our data, if they occured in-between our weather recording intervals... More about our weather records

Advertising

Norwalk Weather History for the Previous 24 Hours

Scroll right to see more
 ConditionsComfort  
Time TempWeatherWind HumidityBarometerVisibility
5:53 PM
Sun, Jul 24
85 °FSunny.7 mph39%29.85 "Hg10 mi
4:53 PM88 °FSunny.6 mph31%29.86 "Hg10 mi
3:53 PM88 °FSunny.9 mph36%29.87 "Hg10 mi
2:53 PM91 °FSunny.10 mph26%29.88 "Hg10 mi
1:53 PM90 °FSunny.9 mph32%29.90 "Hg10 mi
12:53 PM89 °FSunny.N/A39%29.90 "Hg10 mi
11:53 AM85 °FSunny.6 mph48%29.92 "Hg10 mi
10:53 AM81 °FSunny.5 mph56%29.92 "Hg10 mi
9:53 AM78 °FSunny.6 mph62%29.90 "Hg10 mi
8:53 AM76 °FSunny.3 mph72%29.88 "Hg8 mi
7:53 AM74 °FSunny.No wind74%29.86 "Hg7 mi
6:53 AM71 °FClear.No wind84%29.85 "Hg6 mi
5:53 AM69 °FClear.No wind87%29.83 "Hg7 mi
4:53 AM70 °FPassing clouds.5 mph87%29.82 "Hg7 mi
3:53 AM70 °FClear.3 mph84%29.80 "Hg7 mi
2:53 AM71 °FClear.No wind81%29.80 "Hg8 mi
1:53 AM72 °FClear.No wind78%29.80 "Hg9 mi
12:53 AM73 °FClear.No wind74%29.80 "Hg9 mi
11:53 PM
Sat, Jul 23
73 °FClear.No wind76%29.81 "Hg9 mi
10:53 PM74 °FClear.No wind74%29.82 "Hg9 mi
9:53 PM74 °FClear.No wind74%29.83 "Hg9 mi
8:53 PM75 °FSunny.No wind71%29.81 "Hg10 mi
7:53 PM77 °FSunny.6 mph64%29.80 "Hg10 mi
Weather by CustomWeather, © 2016

See weather overviewHow to use our weather pages